Voltar ao catálogo

STARLINK-31514

AtivoComunicaçõesVLEO
NORAD 59187·PAYLOAD·🇺🇸 United States

Lançado Mar 10, 2024 de Cape Canaveral Space Force Station

Loading…

Próximas Passagens (próximas 24 horas)

TLE

AtualizadoSource: CelesTrak SupGP

Época: Sep 15, 2026, 02:18 UTC

1 59187C 24045K   26258.09631944  .00043822  00000+0  15871-2 0  2584
2 59187  42.9994 102.9656 0001389 270.0171 234.7902 15.27560092    12

Acompanhe STARLINK-31514 em tempo real com AllMySat

Download on the App Store